119P/Parker-Hartley (2014)

Japanese version
Home page
Updated on September 2, 2011

---------------------------------------------------------------------

* Profile

* Orbital Elements

The following orbital elements are taken from MPC 75718:

Epoch 2014 Apr. 13.0 TT = JDT 2456760.5
T 2014 Apr. 2.5972 TT                                   MPC
q   3.026500             (2000.0)            P               Q
n   0.1113957      Peri.  181.3053      +0.4162702      -0.9055842
a   4.277831       Node   244.1007      +0.8350307      +0.4162100
e   0.292515       Incl.    5.1958      +0.3597817      +0.0817707
P   8.85
From 557 observations 1995-2006, mean residual 0".6.

* Finding Charts

* Magnitudes Graph

        m1 = 7.5 + 5 log d + 15.0 log r

---------------------------------------------------------------------

The orbital elements are published at the MPC Ephemerides and Orbital Elements.
The charts are made with StellaNavigator Ver.8 (AstroArts).
The magnitudes graphs are made with Comet for Windows.

---------------------------------------------------------------------

Copyright(C) Seiichi Yoshida (comet@aerith.net). All rights reserved.